CFG1603 LEPA-EDDG

Flight info

Callsign CFG1603
Flight time 2h 0m
Altitude 34000
Route MEROS N853 LUMAS DCT MAXIR DCT LUSOL DCT BODRU DCT OKTET DCT IRMAR DCT KINES DCT VANAS DCT MOBLO DCT UBIMA DCT GILIR DCT PENDU DCT IXILU DCT EPL DCT ROUSY DCT DIK/N0440F350 T856 DEPOK/N0401F230 T856 QATJA N853 HMM HMM1A
Aircraft A320/M-SDE3FGHIJ1LORVWXYZ/S

Departure

Time 2026-05-05 10:25
Airport Palma de Mallorca Airport (LEPA)

Arrival

Time 2026-05-05 12:26
Airport Münster Osnabrück Airport (EDDG)
Time Latitude Longitude Altitude Speed Heading
2026-05-05 09:44 39.55042 2.73534 26 ft 0 kts 171°
2026-05-05 10:12 39.55059 2.73532 29 ft 4 kts 180°
2026-05-05 10:12 39.55085 2.73536 27 ft 4 kts 200°
2026-05-05 10:12 39.55108 2.73552 28 ft 4 kts 229°
2026-05-05 10:12 39.55114 2.73562 28 ft 0 kts 238°
2026-05-05 10:17 39.55111 2.73555 30 ft 4 kts 236°
2026-05-05 10:17 39.55081 2.73494 25 ft 10 kts 238°
2026-05-05 10:18 39.55055 2.73439 28 ft 11 kts 238°
2026-05-05 10:18 39.55072 2.73372 25 ft 10 kts 46°
2026-05-05 10:18 39.55106 2.73444 25 ft 9 kts 59°
2026-05-05 10:18 39.55142 2.73522 24 ft 12 kts 59°
2026-05-05 10:19 39.55175 2.73591 24 ft 7 kts 59°
2026-05-05 10:19 39.55196 2.73616 24 ft 6 kts 19°
2026-05-05 10:19 39.55230 2.73598 25 ft 5 kts 330°
2026-05-05 10:19 39.55274 2.73561 22 ft 12 kts 323°
2026-05-05 10:20 39.55348 2.73502 22 ft 12 kts 330°
2026-05-05 10:20 39.55419 2.73452 22 ft 11 kts 344°
2026-05-05 10:20 39.55464 2.73493 20 ft 8 kts 61°
2026-05-05 10:20 39.55492 2.73552 20 ft 7 kts 56°
2026-05-05 10:21 39.55526 2.73572 20 ft 5 kts 338°
2026-05-05 10:21 39.55567 2.73541 20 ft 10 kts 329°
2026-05-05 10:21 39.55633 2.73499 19 ft 10 kts 357°
2026-05-05 10:21 39.55676 2.73552 19 ft 8 kts 58°
2026-05-05 10:22 39.55726 2.73653 19 ft 20 kts 58°
2026-05-05 10:22 39.55814 2.73838 18 ft 25 kts 59°
2026-05-05 10:22 39.55905 2.74027 18 ft 24 kts 58°
2026-05-05 10:22 39.55975 2.74180 18 ft 14 kts 59°
2026-05-05 10:23 39.56022 2.74281 19 ft 12 kts 59°
2026-05-05 10:23 39.56068 2.74329 17 ft 8 kts 13°
2026-05-05 10:23 39.56118 2.74322 17 ft 7 kts 339°
2026-05-05 10:23 39.56152 2.74294 18 ft 5 kts 325°
2026-05-05 10:24 39.56181 2.74267 17 ft 7 kts 323°
2026-05-05 10:24 39.56205 2.74218 17 ft 6 kts 264°
2026-05-05 10:24 39.56196 2.74196 17 ft 0 kts 237°
2026-05-05 10:24 39.56188 2.74180 17 ft 18 kts 237°
2026-05-05 10:25 39.55987 2.73755 16 ft 88 kts 239°
2026-05-05 10:25 39.55564 2.72865 22 ft 142 kts 238°
2026-05-05 10:25 39.54967 2.71627 140 ft 174 kts 237°
2026-05-05 10:25 39.54318 2.70304 826 ft 175 kts 237°
2026-05-05 10:26 39.53677 2.68947 1547 ft 178 kts 237°
2026-05-05 10:26 39.53052 2.67555 2175 ft 179 kts 237°
2026-05-05 10:26 39.52412 2.66181 2809 ft 178 kts 236°
2026-05-05 10:26 39.51754 2.64804 3376 ft 184 kts 236°
2026-05-05 10:27 39.51051 2.63303 3606 ft 206 kts 237°
2026-05-05 10:27 39.50258 2.61671 4087 ft 217 kts 233°
2026-05-05 10:27 39.49120 2.60279 4434 ft 240 kts 207°
2026-05-05 10:27 39.47546 2.59380 4872 ft 259 kts 204°
2026-05-05 10:28 39.45909 2.58345 5635 ft 265 kts 208°
2026-05-05 10:28 39.44256 2.57227 6422 ft 271 kts 209°
2026-05-05 10:28 39.42528 2.56226 7240 ft 274 kts 194°
2026-05-05 10:28 39.40628 2.56303 8081 ft 279 kts 163°
2026-05-05 10:29 39.38985 2.57643 8926 ft 286 kts 137°
2026-05-05 10:29 39.37855 2.59805 9631 ft 298 kts 119°
2026-05-05 10:29 39.36964 2.62265 10334 ft 300 kts 123°
2026-05-05 10:29 39.35733 2.64430 10952 ft 305 kts 136°
2026-05-05 10:30 39.34148 2.66384 11146 ft 326 kts 143°
2026-05-05 10:30 39.32344 2.68312 11352 ft 346 kts 144°
2026-05-05 10:30 39.30452 2.70303 11882 ft 354 kts 144°
2026-05-05 10:30 39.28573 2.72395 12515 ft 362 kts 139°
2026-05-05 10:31 39.27140 2.75119 13107 ft 378 kts 114°
2026-05-05 10:31 39.26639 2.78489 13703 ft 389 kts 96°
2026-05-05 10:31 39.26543 2.82002 14267 ft 395 kts 92°
2026-05-05 10:31 39.26604 2.85567 14812 ft 401 kts 86°
2026-05-05 10:32 39.27157 2.89117 15361 ft 407 kts 73°
2026-05-05 10:32 39.28186 2.92544 15907 ft 412 kts 64°
2026-05-05 10:32 39.29572 2.95803 16450 ft 417 kts 59°
2026-05-05 10:32 39.31016 2.99068 16999 ft 421 kts 60°
2026-05-05 10:33 39.32466 3.02376 17541 ft 425 kts 60°
2026-05-05 10:33 39.33930 3.05722 18085 ft 430 kts 60°
2026-05-05 10:33 39.35411 3.09102 18581 ft 434 kts 60°
2026-05-05 10:33 39.36910 3.12512 19040 ft 439 kts 59°
2026-05-05 10:34 39.38430 3.15950 19530 ft 443 kts 59°
2026-05-05 10:34 39.39967 3.19418 20012 ft 447 kts 60°
2026-05-05 10:34 39.41517 3.22920 20495 ft 451 kts 60°
2026-05-05 10:34 39.43079 3.26455 20947 ft 455 kts 59°
2026-05-05 10:35 39.44678 3.30005 21398 ft 459 kts 59°
2026-05-05 10:35 39.46317 3.33559 21842 ft 462 kts 58°
2026-05-05 10:35 39.47988 3.37141 22269 ft 466 kts 58°
2026-05-05 10:35 39.49673 3.40749 22696 ft 470 kts 58°
2026-05-05 10:36 39.51365 3.44390 23116 ft 474 kts 59°
2026-05-05 10:36 39.53060 3.48068 23528 ft 477 kts 59°
2026-05-05 10:36 39.54758 3.51779 23867 ft 480 kts 59°
2026-05-05 10:36 39.56459 3.55508 24219 ft 483 kts 59°
2026-05-05 10:37 39.58173 3.59268 24554 ft 486 kts 59°
2026-05-05 10:37 39.59895 3.63047 24886 ft 488 kts 59°
2026-05-05 10:37 39.61604 3.66800 25207 ft 491 kts 59°
2026-05-05 10:37 39.63343 3.70621 25524 ft 493 kts 59°
2026-05-05 10:38 39.65091 3.74461 25845 ft 495 kts 59°
2026-05-05 10:38 39.66845 3.78323 26164 ft 498 kts 59°
2026-05-05 10:38 39.68608 3.82204 26468 ft 500 kts 59°
2026-05-05 10:38 39.70379 3.86108 26767 ft 503 kts 59°
2026-05-05 10:39 39.72156 3.90035 27063 ft 505 kts 59°
2026-05-05 10:39 39.73937 3.93984 27345 ft 508 kts 59°
2026-05-05 10:39 39.75722 3.97946 27644 ft 510 kts 59°
2026-05-05 10:39 39.77519 4.01937 27912 ft 513 kts 59°
2026-05-05 10:40 39.79324 4.05947 28188 ft 515 kts 59°
2026-05-05 10:40 39.81144 4.09971 28445 ft 517 kts 57°
2026-05-05 10:40 39.83247 4.13767 28702 ft 517 kts 47°
2026-05-05 10:40 39.85768 4.17095 28956 ft 516 kts 37°
2026-05-05 10:41 39.88638 4.19880 29174 ft 513 kts 27°
2026-05-05 10:41 39.91769 4.22050 29394 ft 509 kts 18°
2026-05-05 10:41 39.95089 4.23568 29612 ft 503 kts
2026-05-05 10:41 39.98501 4.24475 29831 ft 500 kts
2026-05-05 10:42 40.05348 4.26074 30374 ft 500 kts
2026-05-05 10:42 40.08769 4.26883 30636 ft 499 kts
2026-05-05 10:42 40.12188 4.27696 30897 ft 499 kts
2026-05-05 10:43 40.15604 4.28507 31159 ft 499 kts
2026-05-05 10:43 40.19019 4.29315 31423 ft 498 kts
2026-05-05 10:43 40.22430 4.30119 31697 ft 498 kts
2026-05-05 10:43 40.25832 4.30921 31982 ft 498 kts
2026-05-05 10:44 40.29239 4.31725 32253 ft 497 kts
2026-05-05 10:44 40.32652 4.32528 32513 ft 497 kts
2026-05-05 10:44 40.36056 4.33333 32780 ft 497 kts
2026-05-05 10:44 40.39457 4.34142 33040 ft 497 kts
2026-05-05 10:45 40.42858 4.34953 33299 ft 497 kts
2026-05-05 10:45 40.46258 4.35765 33567 ft 497 kts
2026-05-05 10:45 40.49659 4.36580 33756 ft 497 kts
2026-05-05 10:45 40.53055 4.37393 33929 ft 497 kts
2026-05-05 10:46 40.56458 4.38207 33981 ft 497 kts
2026-05-05 10:46 40.63260 4.39830 33982 ft 497 kts
2026-05-05 10:47 40.70059 4.41451 33980 ft 496 kts
2026-05-05 10:47 40.76856 4.43080 33977 ft 496 kts
2026-05-05 10:48 40.83650 4.44714 33977 ft 496 kts
2026-05-05 10:48 40.90443 4.46343 33982 ft 496 kts
2026-05-05 10:49 40.97227 4.47990 33985 ft 496 kts
2026-05-05 10:49 41.04022 4.49651 33986 ft 497 kts
2026-05-05 10:50 41.10827 4.51314 33992 ft 497 kts
2026-05-05 10:50 41.17622 4.52976 33997 ft 497 kts
2026-05-05 10:51 41.24430 4.54633 33990 ft 497 kts
2026-05-05 10:51 41.31237 4.56288 33990 ft 497 kts
2026-05-05 10:52 41.38042 4.57952 33995 ft 498 kts
2026-05-05 10:52 41.44860 4.59626 33997 ft 498 kts
2026-05-05 10:53 41.51682 4.61304 34002 ft 499 kts
2026-05-05 10:53 41.58507 4.62988 33999 ft 499 kts
2026-05-05 10:54 41.65334 4.64684 34000 ft 499 kts
2026-05-05 10:54 41.72126 4.66670 33996 ft 506 kts 12°
2026-05-05 10:55 41.78527 4.70839 33991 ft 517 kts 27°
2026-05-05 10:55 41.84688 4.75823 33983 ft 517 kts 26°
2026-05-05 10:56 41.90858 4.80776 33980 ft 517 kts 26°
2026-05-05 10:56 41.96985 4.85695 33983 ft 516 kts 26°
2026-05-05 10:57 42.03137 4.90662 33986 ft 516 kts 27°
2026-05-05 10:57 42.09321 4.95676 33987 ft 515 kts 27°
2026-05-05 10:58 42.15417 5.00635 33997 ft 514 kts 27°
2026-05-05 10:58 42.21533 5.05626 33996 ft 513 kts 27°
2026-05-05 10:59 42.27631 5.10605 33995 ft 512 kts 27°
2026-05-05 10:59 42.33724 5.15587 33995 ft 511 kts 27°
2026-05-05 11:00 42.39804 5.20572 33992 ft 510 kts 27°
2026-05-05 11:00 42.45871 5.25560 33994 ft 510 kts 28°
2026-05-05 11:01 42.51928 5.30543 33993 ft 509 kts 28°
2026-05-05 11:01 42.57974 5.35529 33993 ft 508 kts 28°
2026-05-05 11:02 42.63994 5.40527 33992 ft 507 kts 28°
2026-05-05 11:02 42.70014 5.45525 33987 ft 507 kts 28°
2026-05-05 11:03 42.76026 5.50527 33983 ft 506 kts 28°
2026-05-05 11:03 42.82033 5.55524 33995 ft 506 kts 28°
2026-05-05 11:04 42.88033 5.60526 33986 ft 505 kts 28°
2026-05-05 11:04 42.93012 5.64694 33986 ft 505 kts 28°
2026-05-05 11:05 42.98992 5.69708 33985 ft 504 kts 29°
2026-05-05 11:05 43.05966 5.75575 33967 ft 504 kts 29°
2026-05-05 11:06 43.10963 5.79793 33963 ft 504 kts 29°
2026-05-05 11:06 43.16927 5.84837 33962 ft 503 kts 29°
2026-05-05 11:07 43.22842 5.89839 33958 ft 503 kts 29°
2026-05-05 11:07 43.28797 5.94885 33956 ft 503 kts 29°
2026-05-05 11:08 43.34742 5.99938 33950 ft 503 kts 27°
2026-05-05 11:08 43.41121 6.03615 33939 ft 494 kts 10°
2026-05-05 11:09 43.47850 6.04882 33935 ft 486 kts 359°
2026-05-05 11:09 43.54603 6.05558 33939 ft 487 kts 359°
2026-05-05 11:10 43.61363 6.06250 33941 ft 488 kts 359°
2026-05-05 11:10 43.68135 6.06942 33939 ft 488 kts 359°
2026-05-05 11:11 43.74914 6.07794 33934 ft 493 kts
2026-05-05 11:11 43.81480 6.10776 33943 ft 503 kts 23°
2026-05-05 11:12 43.87771 6.15084 33940 ft 505 kts 23°
2026-05-05 11:12 43.94082 6.19380 33946 ft 505 kts 23°
2026-05-05 11:13 44.00393 6.23694 33942 ft 506 kts 23°
2026-05-05 11:13 44.06716 6.28030 33940 ft 507 kts 23°
2026-05-05 11:14 44.13048 6.32382 33935 ft 508 kts 23°
2026-05-05 11:14 44.19344 6.36720 33937 ft 509 kts 23°
2026-05-05 11:15 44.25732 6.41136 33937 ft 509 kts 23°
2026-05-05 11:15 44.32038 6.45505 33940 ft 510 kts 23°
2026-05-05 11:16 44.38388 6.49919 33935 ft 510 kts 23°
2026-05-05 11:16 44.44781 6.54358 33946 ft 510 kts 23°
2026-05-05 11:17 44.51097 6.58751 33942 ft 510 kts 23°
2026-05-05 11:17 44.57455 6.63206 33943 ft 511 kts 24°
2026-05-05 11:18 44.63811 6.67649 33939 ft 510 kts 24°
2026-05-05 11:18 44.70167 6.72106 33953 ft 510 kts 24°
2026-05-05 11:19 44.76560 6.76390 33957 ft 507 kts 17°
2026-05-05 11:19 44.83351 6.78535 33979 ft 496 kts 359°
2026-05-05 11:20 44.90178 6.78366 33969 ft 489 kts 351°
2026-05-05 11:20 44.96981 6.77910 33972 ft 490 kts 352°
2026-05-05 11:21 45.03795 6.77467 33973 ft 491 kts 351°
2026-05-05 11:21 45.10621 6.77023 33982 ft 491 kts 351°
2026-05-05 11:22 45.17451 6.76571 33985 ft 491 kts 352°
2026-05-05 11:22 45.24269 6.76130 33986 ft 491 kts 352°
2026-05-05 11:23 45.31092 6.75669 33977 ft 490 kts 352°
2026-05-05 11:23 45.37899 6.75206 33962 ft 490 kts 351°
2026-05-05 11:24 45.44714 6.74754 33960 ft 490 kts 352°
2026-05-05 11:24 45.51515 6.74294 33963 ft 490 kts 352°
2026-05-05 11:25 45.58324 6.73824 33962 ft 490 kts 352°
2026-05-05 11:25 45.65128 6.73360 33957 ft 489 kts 352°
2026-05-05 11:26 45.71922 6.72897 33950 ft 489 kts 352°
2026-05-05 11:26 45.78708 6.72424 33949 ft 488 kts 352°
2026-05-05 11:27 45.85483 6.71954 33936 ft 487 kts 353°
2026-05-05 11:27 45.92263 6.71492 33933 ft 488 kts 353°
2026-05-05 11:28 45.99042 6.71044 33932 ft 487 kts 353°
2026-05-05 11:28 46.05818 6.70588 33934 ft 487 kts 353°
2026-05-05 11:29 46.12538 6.69824 33929 ft 481 kts 344°
2026-05-05 11:29 46.18882 6.67097 33922 ft 474 kts 336°
2026-05-05 11:30 46.25134 6.64049 33914 ft 474 kts 336°
2026-05-05 11:30 46.31385 6.61009 33913 ft 474 kts 336°
2026-05-05 11:31 46.37640 6.57963 33907 ft 474 kts 337°
2026-05-05 11:31 46.43883 6.54905 33903 ft 474 kts 337°
2026-05-05 11:32 46.50134 6.51844 33901 ft 474 kts 337°
2026-05-05 11:32 46.56381 6.48773 33907 ft 474 kts 337°
2026-05-05 11:33 46.62634 6.45689 33906 ft 474 kts 338°
2026-05-05 11:33 46.68879 6.42599 33902 ft 474 kts 338°
2026-05-05 11:34 46.75089 6.39520 33904 ft 475 kts 338°
2026-05-05 11:34 46.81340 6.36414 33898 ft 475 kts 338°
2026-05-05 11:35 46.87594 6.33303 33894 ft 475 kts 338°
2026-05-05 11:35 46.93852 6.30182 33894 ft 475 kts 339°
2026-05-05 11:36 47.00109 6.27062 33878 ft 475 kts 339°
2026-05-05 11:36 47.06344 6.23858 33883 ft 474 kts 334°
2026-05-05 11:37 47.12295 6.19629 33880 ft 472 kts 331°
2026-05-05 11:37 47.18187 6.15368 33880 ft 472 kts 331°
2026-05-05 11:38 47.24086 6.11105 33876 ft 472 kts 332°
2026-05-05 11:38 47.29950 6.06871 33880 ft 472 kts 332°
2026-05-05 11:39 47.36199 6.03856 33875 ft 476 kts 350°
2026-05-05 11:39 47.42809 6.03446 33884 ft 477 kts
2026-05-05 11:40 47.49438 6.03604 33868 ft 476 kts
2026-05-05 11:40 47.56100 6.03740 33864 ft 476 kts
2026-05-05 11:41 47.62673 6.03890 33860 ft 475 kts
2026-05-05 11:41 47.69283 6.04031 33857 ft 475 kts
2026-05-05 11:42 47.75889 6.04185 33859 ft 474 kts
2026-05-05 11:42 47.82531 6.04390 33862 ft 474 kts
2026-05-05 11:43 47.89076 6.04615 33865 ft 474 kts
2026-05-05 11:43 47.95705 6.04830 33871 ft 474 kts
2026-05-05 11:44 48.02245 6.05023 33859 ft 473 kts
2026-05-05 11:44 48.08818 6.05221 33856 ft 473 kts
2026-05-05 11:45 48.15402 6.05430 33848 ft 473 kts
2026-05-05 11:45 48.21988 6.05642 33850 ft 474 kts
2026-05-05 11:46 48.28595 6.05849 33844 ft 475 kts
2026-05-05 11:46 48.35202 6.06067 33841 ft 475 kts
2026-05-05 11:47 48.41800 6.06384 33838 ft 475 kts
2026-05-05 11:47 48.48409 6.06728 33842 ft 476 kts
2026-05-05 11:48 48.57286 6.07157 33840 ft 478 kts
2026-05-05 11:48 48.63935 6.07460 33842 ft 478 kts
2026-05-05 11:49 48.70593 6.07779 33841 ft 479 kts
2026-05-05 11:49 48.77226 6.08097 33840 ft 481 kts
2026-05-05 11:50 48.83971 6.08416 33843 ft 482 kts
2026-05-05 11:50 48.90643 6.08736 33864 ft 483 kts
2026-05-05 11:51 48.97377 6.09064 33867 ft 485 kts
2026-05-05 11:51 49.04126 6.09391 33864 ft 486 kts
2026-05-05 11:52 49.10904 6.09715 33859 ft 487 kts
2026-05-05 11:52 49.17691 6.10044 33855 ft 489 kts
2026-05-05 11:53 49.24491 6.10376 33848 ft 490 kts
2026-05-05 11:53 49.31309 6.10704 33852 ft 491 kts
2026-05-05 11:54 49.38149 6.11033 33847 ft 491 kts
2026-05-05 11:54 49.44982 6.11379 33847 ft 491 kts
2026-05-05 11:55 49.51815 6.11707 33854 ft 492 kts
2026-05-05 11:55 49.58663 6.11954 33852 ft 492 kts
2026-05-05 11:56 49.65515 6.12185 33864 ft 493 kts
2026-05-05 11:56 49.72378 6.12443 33875 ft 493 kts
2026-05-05 11:57 49.79230 6.12716 33858 ft 491 kts
2026-05-05 11:57 49.86010 6.13732 33856 ft 491 kts 13°
2026-05-05 11:58 49.92400 6.17394 34222 ft 490 kts 25°
2026-05-05 11:58 49.95501 6.19568 34511 ft 488 kts 25°
2026-05-05 11:58 49.98595 6.21751 34777 ft 487 kts 25°
2026-05-05 11:59 50.04732 6.26208 34839 ft 486 kts 26°
2026-05-05 11:59 50.10834 6.30731 34836 ft 486 kts 26°
2026-05-05 12:00 50.16939 6.35239 34847 ft 486 kts 26°
2026-05-05 12:00 50.23055 6.39755 34831 ft 486 kts 26°
2026-05-05 12:01 50.29169 6.44275 34826 ft 486 kts 25°
2026-05-05 12:01 50.35279 6.48833 34823 ft 486 kts 28°
2026-05-05 12:02 50.40973 6.54519 34821 ft 486 kts 34°
2026-05-05 12:02 50.46600 6.60387 34836 ft 486 kts 34°
2026-05-05 12:03 50.52198 6.66220 34853 ft 486 kts 34°
2026-05-05 12:03 50.57841 6.72106 34866 ft 487 kts 34°
2026-05-05 12:04 50.63470 6.78015 34862 ft 486 kts 34°
2026-05-05 12:04 50.69353 6.83240 34869 ft 486 kts 20°
2026-05-05 12:05 50.75881 6.85594 34851 ft 481 kts
2026-05-05 12:05 50.82529 6.85347 34860 ft 478 kts 354°
2026-05-05 12:06 50.89171 6.84820 34863 ft 478 kts 354°
2026-05-05 12:06 50.95789 6.84090 34873 ft 477 kts 353°
2026-05-05 12:07 51.02444 6.84257 34777 ft 481 kts
2026-05-05 12:07 51.05738 6.85273 33959 ft 488 kts 15°
2026-05-05 12:07 51.08923 6.87331 32671 ft 498 kts 27°
2026-05-05 12:08 51.11837 6.90304 31641 ft 498 kts 38°
2026-05-05 12:08 51.14417 6.93970 30630 ft 497 kts 47°
2026-05-05 12:08 51.16594 6.98196 29894 ft 489 kts 54°
2026-05-05 12:08 51.18624 7.02493 29179 ft 482 kts 54°
2026-05-05 12:09 51.20631 7.06727 28518 ft 474 kts 54°
2026-05-05 12:09 51.22602 7.10890 27857 ft 468 kts 54°
2026-05-05 12:09 51.24546 7.15016 27207 ft 462 kts 54°
2026-05-05 12:09 51.26457 7.19098 26566 ft 456 kts 54°
2026-05-05 12:10 51.28341 7.23145 25943 ft 452 kts 54°
2026-05-05 12:10 51.30202 7.27158 25325 ft 447 kts 54°
2026-05-05 12:10 51.32044 7.31134 24710 ft 443 kts 54°
2026-05-05 12:10 51.33880 7.35072 24089 ft 439 kts 53°
2026-05-05 12:11 51.35960 7.38617 23496 ft 437 kts 42°
2026-05-05 12:11 51.38391 7.41497 22882 ft 433 kts 32°
2026-05-05 12:11 51.41069 7.43641 22346 ft 428 kts 21°
2026-05-05 12:11 51.43876 7.45123 21837 ft 422 kts 17°
2026-05-05 12:12 51.46664 7.46513 21339 ft 417 kts 17°
2026-05-05 12:12 51.49413 7.47888 20854 ft 412 kts 17°
2026-05-05 12:12 51.52139 7.49254 20379 ft 408 kts 17°
2026-05-05 12:12 51.54840 7.50608 19893 ft 405 kts 17°
2026-05-05 12:13 51.57518 7.51953 19414 ft 402 kts 17°
2026-05-05 12:13 51.60176 7.53290 18919 ft 399 kts 17°
2026-05-05 12:13 51.62820 7.54617 18428 ft 398 kts 17°
2026-05-05 12:13 51.65459 7.55943 17876 ft 396 kts 17°
2026-05-05 12:14 51.68079 7.57260 17354 ft 393 kts 17°
2026-05-05 12:14 51.70638 7.58590 16848 ft 390 kts 21°
2026-05-05 12:14 51.73088 7.60435 16257 ft 389 kts 27°
2026-05-05 12:14 51.75497 7.62418 15646 ft 389 kts 27°
2026-05-05 12:15 51.77921 7.64372 15028 ft 389 kts 23°
2026-05-05 12:15 51.80539 7.65407 14422 ft 388 kts
2026-05-05 12:15 51.83205 7.64923 13815 ft 386 kts 342°
2026-05-05 12:15 51.85583 7.63001 13202 ft 382 kts 322°
2026-05-05 12:16 51.87395 7.59936 12643 ft 375 kts 303°
2026-05-05 12:16 51.88475 7.56132 12081 ft 369 kts 286°
2026-05-05 12:16 51.89223 7.52165 11402 ft 367 kts 286°
2026-05-05 12:16 51.89957 7.48260 10726 ft 356 kts 285°
2026-05-05 12:17 51.90658 7.44522 10369 ft 336 kts 285°
2026-05-05 12:17 51.91324 7.40968 10253 ft 324 kts 285°
2026-05-05 12:17 51.91966 7.37528 10131 ft 314 kts 285°
2026-05-05 12:17 51.92586 7.34190 10005 ft 305 kts 285°
2026-05-05 12:18 51.93187 7.30953 9833 ft 297 kts 285°
2026-05-05 12:18 51.93776 7.27766 9460 ft 293 kts 285°
2026-05-05 12:18 51.94358 7.24611 8827 ft 291 kts 285°
2026-05-05 12:18 51.94945 7.21490 8173 ft 288 kts 289°
2026-05-05 12:19 51.95975 7.18761 7507 ft 286 kts 316°
2026-05-05 12:19 51.97661 7.17144 6845 ft 283 kts 344°
2026-05-05 12:19 51.99599 7.16938 6212 ft 280 kts 11°
2026-05-05 12:19 52.01385 7.18075 5490 ft 277 kts 34°
2026-05-05 12:20 52.02773 7.20148 5042 ft 264 kts 53°
2026-05-05 12:20 52.03643 7.22617 4895 ft 241 kts 70°
2026-05-05 12:20 52.04182 7.25090 4824 ft 228 kts 71°
2026-05-05 12:20 52.04709 7.27513 4763 ft 228 kts 71°
2026-05-05 12:21 52.05233 7.29933 4673 ft 227 kts 71°
2026-05-05 12:21 52.05753 7.32345 4560 ft 227 kts 71°
2026-05-05 12:21 52.06271 7.34754 4315 ft 225 kts 71°
2026-05-05 12:21 52.06783 7.37137 4027 ft 223 kts 71°
2026-05-05 12:22 52.07292 7.39505 3731 ft 221 kts 71°
2026-05-05 12:22 52.07796 7.41858 3453 ft 220 kts 71°
2026-05-05 12:22 52.08298 7.44199 3149 ft 218 kts 70°
2026-05-05 12:22 52.08795 7.46523 2855 ft 217 kts 70°
2026-05-05 12:23 52.09290 7.48838 2559 ft 216 kts 70°
2026-05-05 12:23 52.09772 7.51101 2263 ft 206 kts 70°
2026-05-05 12:23 52.10223 7.53218 1999 ft 191 kts 70°
2026-05-05 12:23 52.10632 7.55141 1772 ft 170 kts 70°
2026-05-05 12:24 52.10994 7.56843 1542 ft 149 kts 69°
2026-05-05 12:24 52.11317 7.58361 1342 ft 137 kts 69°
2026-05-05 12:24 52.11621 7.59792 1146 ft 133 kts 69°
2026-05-05 12:24 52.11918 7.61219 917 ft 133 kts 68°
2026-05-05 12:25 52.12224 7.62622 775 ft 131 kts 69°
2026-05-05 12:25 52.12521 7.64026 589 ft 131 kts 68°
2026-05-05 12:25 52.12821 7.65425 387 ft 131 kts 70°
2026-05-05 12:25 52.13114 7.66824 227 ft 130 kts 69°
2026-05-05 12:26 52.13388 7.68116 167 ft 95 kts 72°
2026-05-05 12:26 52.13521 7.68729 167 ft 35 kts 72°
2026-05-05 12:26 52.13592 7.69088 169 ft 32 kts 69°
2026-05-05 12:26 52.13664 7.69420 169 ft 31 kts 70°
2026-05-05 12:27 52.13735 7.69754 168 ft 31 kts 71°
2026-05-05 12:27 52.13766 7.69948 167 ft 14 kts 99°
2026-05-05 12:27 52.13712 7.70051 168 ft 10 kts 182°
2026-05-05 12:27 52.13673 7.70037 168 ft 0 kts 194°
2026-05-05 12:29 52.13671 7.70037 168 ft 2 kts 194°
2026-05-05 12:29 52.13643 7.70022 168 ft 6 kts 203°
2026-05-05 12:29 52.13606 7.69967 168 ft 7 kts 234°
2026-05-05 12:30 52.13587 7.69897 168 ft 6 kts 253°
2026-05-05 12:30 52.13569 7.69810 168 ft 13 kts 250°
2026-05-05 12:30 52.13528 7.69613 168 ft 20 kts 251°
2026-05-05 12:30 52.13484 7.69406 168 ft 19 kts 251°
2026-05-05 12:31 52.13442 7.69245 167 ft 12 kts 217°
2026-05-05 12:31 52.13390 7.69246 167 ft 11 kts 158°
2026-05-05 12:31 52.13321 7.69286 167 ft 10 kts 160°
2026-05-05 12:31 52.13258 7.69319 167 ft 9 kts 165°
2026-05-05 12:32 52.13217 7.69274 167 ft 7 kts 248°
2026-05-05 12:32 52.13199 7.69192 167 ft 9 kts 251°
2026-05-05 12:32 52.13172 7.69066 167 ft 8 kts 250°
2026-05-05 12:32 52.13132 7.69043 167 ft 5 kts 171°
2026-05-05 12:33 52.13110 7.69053 167 ft 2 kts 172°
2026-05-05 12:33 52.13102 7.69051 167 ft 1 kts 186°
2026-05-05 12:33 52.13098 7.69051 167 ft 0 kts 187°